Cocoa Beach, FL

3:02 AM EDT on September 22, 2017 (GMT -0400)
Cape Canaveral Air Station Skid Strip

Weather History for KXMR - January, 2013

Change the Weather History Date:

Monday, January 21, 2013

  Actual Average (KCOF) Record (KCOF)
Temperature  
Mean Temperature 68 °F -  
Max Temperature 73 °F 67 °F 82 °F (2002)
Min Temperature 64 °F 52 °F 33 °F (2009)
Cooling Degree Days 4    
Growing Degree Days 18 (Base 50)    
Moisture  
Dew Point 62 °F    
Average Humidity 82    
Maximum Humidity 94    
Minimum Humidity 65    
Precipitation  
Precipitation 0.00 in - - ()
Sea Level Pressure  
Sea Level Pressure 30.06 in    
Wind  
Wind Speed 5 mph (North)    
Max Wind Speed 10 mph    
Max Gust Speed 18 mph    
Visibility 10 miles    
Events      
Averages and records for this station are not official NWS values.
T = Trace of Precipitation, MM = Missing Value Source: NWS Daily Summary

Daily Weather History Graph

Daily Weather History Graph

Search for Another Location

Airport or City:

Trip Planner

Search our weather history database for the weather conditions in past years. The results will help you decide how hot, cold, wet, or windy it might be!

Date:

Astronomy

Jan. 21, 2013 Rise Set
Actual Time 7:14 AM EST 5:53 PM EST
Civil Twilight 6:49 AM EST 6:18 PM EST
Nautical Twilight 6:20 AM EST 6:46 PM EST
Astronomical Twilight 5:52 AM EST 7:15 PM EST
Moon 1:33 PM EST (1/21) 2:40 AM EST (1/21)
Length of Visible Light 11h 28m
Length of Day
10h 38m
Waxing Gibbous, 75% of the Moon is Illuminated
Jan 21
Waxing Gibbous
Jan 26
Full
Feb 3
Last Quarter
Feb 10
New
Feb 17
First Quarter

Hourly Weather History & Observations

Time (EST) Temp. Dew Point Humidity Pressure Visibility Wind Dir Wind Speed Gust Speed Precip Events Conditions
12:05 AM 66.2 °F 64.4 °F 94% 30.09 in 10.0 mi NNE 4.6 mph - N/A   Mostly Cloudy
12:08 AM 66.2 °F 64.4 °F 94% 30.09 in 10.0 mi NNE 4.6 mph - N/A   Mostly Cloudy
12:17 AM 66.2 °F 64.4 °F 94% 30.09 in 10.0 mi NNE 3.5 mph - N/A   Mostly Cloudy
12:55 AM 66.4 °F 63.1 °F 89% 30.08 in 10.0 mi NNE 4.6 mph - N/A   Mostly Cloudy
1:05 AM 66.2 °F 62.6 °F 88% 30.09 in 10.0 mi NNE 3.5 mph - N/A   Mostly Cloudy
1:55 AM 66.4 °F 63.7 °F 91% 30.08 in 10.0 mi North 4.6 mph - N/A   Mostly Cloudy
2:55 AM 65.7 °F 63.3 °F 92% 30.06 in 10.0 mi North 4.6 mph - N/A   Overcast
3:55 AM 65.8 °F 63.1 °F 91% 30.06 in 10.0 mi North 3.5 mph - N/A   Mostly Cloudy
4:37 AM 66.2 °F 62.6 °F 88% 30.05 in 10.0 mi North 4.6 mph - N/A   Overcast
4:43 AM 66.2 °F 64.4 °F 94% 30.04 in 10.0 mi NNE 3.5 mph - N/A   Overcast
4:55 AM 66.4 °F 63.7 °F 91% 30.04 in 10.0 mi NE 4.6 mph - N/A   Overcast
5:55 AM 66.4 °F 64.0 °F 92% 30.05 in 10.0 mi Calm Calm - N/A   Overcast
6:55 AM 66.0 °F 64.0 °F 93% 30.06 in 10.0 mi NNE 3.5 mph - N/A   Overcast
7:55 AM 66.2 °F 64.2 °F 93% 30.07 in 10.0 mi Calm Calm - N/A   Mostly Cloudy
8:55 AM 68.7 °F 64.2 °F 86% 30.09 in 10.0 mi Calm Calm - N/A   Scattered Clouds
9:55 AM 69.8 °F 63.1 °F 79% 30.10 in 10.0 mi NNE 4.6 mph - N/A   Scattered Clouds
10:55 AM 72.1 °F 63.0 °F 73% 30.10 in 10.0 mi North 5.8 mph - N/A   Partly Cloudy
11:55 AM 73.0 °F 60.8 °F 65% 30.08 in 10.0 mi Variable 4.6 mph - N/A   Mostly Cloudy
12:29 PM 69.8 °F 60.8 °F 73% 30.07 in 10.0 mi North 10.4 mph - N/A   Light Drizzle
12:39 PM 69.8 °F 60.8 °F 73% 30.06 in 10.0 mi NNE 8.1 mph - N/A   Scattered Clouds
12:55 PM 71.4 °F 61.3 °F 70% 30.05 in 10.0 mi North 8.1 mph - 0.00 in   Mostly Cloudy
1:55 PM 70.9 °F 61.3 °F 72% 30.03 in 10.0 mi North 10.4 mph - N/A   Mostly Cloudy
2:55 PM 69.8 °F 60.6 °F 73% 30.01 in 10.0 mi North 9.2 mph 18.4 mph N/A   Scattered Clouds
3:36 PM 68.0 °F 60.8 °F 78% 30.02 in 10.0 mi North 6.9 mph - N/A   Light Drizzle
3:45 PM 68.0 °F 60.8 °F 78% 30.02 in 10.0 mi North 9.2 mph - N/A   Mostly Cloudy
3:55 PM 68.0 °F 59.7 °F 75% 30.02 in 10.0 mi North 9.2 mph - 0.00 in   Overcast
4:55 PM 67.3 °F 59.5 °F 76% 30.03 in 10.0 mi North 8.1 mph - N/A   Overcast
5:55 PM 66.4 °F 58.8 °F 77% 30.04 in 10.0 mi North 6.9 mph - N/A   Overcast
6:55 PM 66.2 °F 58.6 °F 77% 30.04 in 10.0 mi Variable 4.6 mph - N/A   Overcast
7:55 PM 65.7 °F 58.5 °F 78% 30.04 in 10.0 mi North 4.6 mph - N/A   Overcast
8:55 PM 65.1 °F 58.8 °F 80% 30.04 in 10.0 mi North 4.6 mph - N/A   Partly Cloudy
9:55 PM 65.1 °F 58.8 °F 80% 30.06 in 10.0 mi North 5.8 mph - N/A   Scattered Clouds
10:55 PM 64.9 °F 58.5 °F 79% 30.07 in 10.0 mi NNW 5.8 mph - N/A   Clear
11:55 PM 64.9 °F 57.9 °F 78% 30.07 in 10.0 mi North 6.9 mph - N/A   Clear